STARLINK-5754, 55579

Orbit data source: Space-Track

STARLINK-5754, 55579 is a payload satellite owned by SpaceX/Seattle (US) in LEO that was launched on Sun, 12 Feb 2023 UTC via an FALCON 9 launch vehicle from the Air Force Eastern Test Range (AFETR). Payload-class satellites include a variety of spacecraft equipped with specific instruments for various scientific and technological missions. These include communications satellites like Starlink; space stations such as the ISS; scientific satellites like the Hubble; Earth observation satellites from companies like Planet Labs, Umbra, and HawkEye 360; GPS; miniature CubeSats for education and research; and military/defense satellites.

Loading next visibility...
Identifier
55579, 2023-020L
Orbit
LEO
Country
Flag of USUS
Related business
Manufacturer
SpaceX/Seattle
Mission
Operational Commercial Communications
Bus & Motor
STARLINK, Unknown motor
Mass
305 kg wet, ~290 kg dry
Launch date (UTC)
2023-02-12 (4 years ago)
Launch vehicle
FALCON 9
Launch site
Air Force Eastern Test Range (AFETR)
Object type
Payload
Rocket body
Debris
Shape & HBR
Box + 1 Pan, 10.1 m
Radar Cross Section
13.562 m², Large (>1 m²)

Expand to show TLE details & history
Last TLE update: 21 hours ago

TLE from 21 hours ago
0 STARLINK-5754
1 55579U 23020L   26255.37054403  .00000371  00000-0  23006-4 0  9990
2 55579  43.0060  30.8888 0001475 281.4112  78.6574 15.27577093197467
Epoch: 2026-09-12T08:53Z
TLE epoch observation values (Epoch: 2026-09-12T08:53:35.004Z)
Latitude
-0°
Longitude
-93.88757°
Altitude
482.635 km
Speed
7.626 km/s
True Right ascension
02h 03m 33s
True Declination
0° 00' 00"
Sunlit
Object was in full shadow at epoch
Visualization orbit readout
Latitude
Unknown
Longitude
Unknown
Altitude
Unknown
Speed
Unknown
Apparent Right ascension
Unknown
Apparent Declination
Unknown
Sunlit
N/A
Visualization observer readout
Local Sidereal Time
22:06:10
Azimuth
Unknown
Elevation
Unknown
Doppler factor
Unknown
Orbital elements
Apogee altitude
486.014 km
Perigee altitude
483.99 km
Semi-major axis
6,863.139 km
Eccentricity
0.00015
Inclination
43.006°
RAAN
30.8888°
Arg. of periapsis
281.4112°
True anomaly
78.67397°
Mean anomaly
78.6574°
Eccentric anomaly
78.66569°
Mean motion
3.81732 °/min
Orbital period
94.31 mins
BSTAR
0.000023006
Loading maneuver chart data...
Computing Atmospheric mass density...
Loading historical data...
Loading historical data...
Loading historical data...
Loading historical data...
Loading historical data...
Loading historical data...
Loading historical data...

Documentation

Showing up to 5 results
|